Погода в Ботлихе

Россия / Республика Дагестан     42°40′01″N   46°12′39″E
темп.,
°C
ветер,
м/с
пор.,
м/с
влажн.,
%
обл.,
%
осадки,
мм/ч
давл.,
гПа
погр.,
м
13 июня, вс
вс1300:00+11юз0185100 0.0 101410
03:00+11ю1185100 0.0 101318
06:00+13зсз0180100 0.0 101250
09:00+16всв11644 0.8 1011654
12:00+17ссв226824 4.1 1011903
15:00+15с2279100 9.6 1011509
18:00+13ссз2287100 3.9 1013161
21:00+12зсз0193100 5.0 101447
14 июня, пн
пн1400:00+10сз119199 0.1 101410
03:00+9зюз11894 0.1 101410
06:00+12юз11800 0.0 101495
09:00+16вюв11648 0.0 1012759
12:00+19всв22539 0.0 10111255
15:00+19св326338 0.3 10111247
18:00+17св227836 0.4 1012379
21:00+13юв11890 0.4 101411
15 июня, вт
вт1500:00+11ю11900 0.0 101318
03:00+11ю12830 0.0 101223
06:00+14ююз12670 0.0 101161
09:00+20з125099 0.0 1009540
12:00+23юз363927 0.0 10092093
15:00+23сз354322 0.4 10082064
18:00+18с337718 1.1 1011329
21:00+14ссз11880 1.2 101310
16 июня, ср
ср1600:00+13ю11890 0.0 101316
03:00+12ю12870 0.0 101324
06:00+15ююв12740 0.0 101279
09:00+20ююв22520 0.0 1009325
12:00+26юв12380 0.0 10071237
15:00+27ссз03350 0.0 10062072
18:00+22ссз33680 0.0 1009145
21:00+16зсз22820 0.3 101221
17 июня, чт
чт1700:00+14з11810 0.0 101214
03:00+13ю11790 0.0 101210
06:00+16ююв11650 0.0 101262
09:00+21вюв22510 0.0 1009407
12:00+25в23450 0.0 10071111
15:00+25св12490 0.3 10071157
18:00+21с44745 1.9 1010185
21:00+16с229337 2.1 101473